Temp
-7 -7 -7 -7 -6 -6 -6 -7 -6 -7 -7 -7 -7 -6 -6 -6 -6 -6 -6 -6 -6 -6 -7 -7 -7 -7 -7 -7 -7 -7 -6 -6 -6 -7 -8 -8 -8 -8 -8 -8 -8 -7 -7
-7 -7 -7 -7 -7 -6 -6 -6 -7 -6 -6 -6 -6 -6 -6 -6 -6 -6 -6 -6 -6 -6 -6 -8 -7 -7 -7 -7 -7 -8 -7 -7 -7 -7 -7 -7 -7 -7 -7 -7 -8 -8 -8
-7 -8 -7 -7 -7 -7 -7 -6 -6 -6 -6 -6 -6 -6 -6 -6 -6 -6 -6 -6 -6 -6 -7 -7 -7 -7 -7 -7 -7 -7 -7 -7 -7 -7 -7 -6 -6 -7 -7 -7 -8 -8 -8
-7 -7 -7 -7 -7 -7 -7 -7 -7 -7 -7 -7 -7 -7 -6 -6 -6 -6 -6 -6 -5 -6 -6 -7 -7 -7 -7 -7 -7 -7 -8 -7 -7 -7 -7 -6 -6 -7 -7 -7 -7 -8 -9
-7 -8 -7 -7 -7 -7 -7 -7 -7 -7 -7 -8 -8 -8 -8 -7 -7 -8 -7 -7 -6 -6 -6 -6 -7 -7 -7 -7 -7 -7 -8 -8 -8 -8 -8 -8 -8 -7 -7 -8 -8 -8 -8
-7 -8 -8 -7 -8 -8 -8 -8 -7 -6 -7 -7 -8 -7 -7 -7 -7 -7 -6 -6 -6 -7 -7 -7 -7 -8 -7 -8 -7 -7 -7 -8 -8 -8 -8 -8 -8 -8 -8 -9 -9 -9 -8
-8 -7 -6 -7 -9 -8 -7 -7 -7 -8 -7 -8 -8 -8 -7 -7 -7 -6 -6 -6 -7 -7 -7 -8 -8 -8 -7 -8 -7 -7 -7 -7 -8 -7 -8 -8 -9 -9 -9 -9 -9 -10 -10
-7 -8 -8 -8 -8 -8 -8 -8 -8 -7 -7 -7 -8 -8 -8 -7 -7 -7 -6 -6 -7 -7 -7 -7 -8 -7 -7 -7 -7 -7 -7 -7 -7 -8 -8 -9 -9 -9 -9 -10 -10 -10 -10
-7 -6 -6 -6 -7 -6 -7 -8 -8 -7 -7 -7 -8 -7 -7 -8 -7 -7 -6 -6 -6 -7 -7 -7 -8 -8 -8 -7 -7 -7 -7 -7 -7 -8 -8 -9 -10 -10 -10 -10 -11 -11 -11
-7 -7 -6 -6 -6 -8 -8 -8 -7 -6 -7 -7 -8 -8 -9 -8 -9 -9 -8 -8 -7 -7 -8 -7 -8 -7 -8 -7 -8 -7 -8 -8 -8 -8 -8 -9 -10 -10 -10 -10 -11 -11 -11
-7 -7 -6 -6 -6 -7 -7 -7 -7 -6 -7 -7 -8 -8 -8 -8 -9 -8 -9 -8 -8 -8 -8 -7 -8 -8 -7 -7 -7 -8 -8 -8 -8 -8 -9 -10 -10 -10 -10 -11 -11 -11 -11
-7 -7 -7 -7 -7 -7 -7 -7 -7 -7 -7 -7 -7 -8 -8 -8 -8 -8 -7 -7 -7 -7 -6 -7 -7 -7 -7 -8 -9 -8 -7 -7 -7 -9 -10 -10 -11 -11 -11 -11 -11 -11 -11
-8 -8 -9 -8 -8 -8 -8 -8 -8 -7 -7 -7 -7 -7 -7 -7 -7 -7 -7 -7 -7 -7 -7 -8 -8 -7 -8 -9 -8 -7 -7 -8 -9 -10 -10 -10 -11 -11 -11 -11 -11 -11 -11
-9 -9 -9 -9 -9 -9 -9 -9 -8 -8 -7 -7 -7 -7 -7 -7 -8 -8 -7 -7 -7 -7 -7 -7 -8 -8 -8 -8 -7 -8 -8 -9 -10 -10 -10 -11 -11 -11 -11 -11 -11 -11 -11
-9 -10 -10 -10 -10 -10 -10 -10 -10 -9 -9 -9 -8 -7 -7 -7 -7 -7 -8 -7 -7 -7 -7 -7 -7 -8 -8 -8 -8 -8 -9 -9 -10 -10 -11 -11 -11 -11 -11 -11 -11 -12 -12
-10 -10 -10 -10 -10 -10 -10 -10 -10 -10 -9 -9 -8 -7 -7 -7 -8 -8 -8 -8 -8 -8 -8 -8 -8 -8 -8 -8 -8 -9 -9 -10 -10 -10 -10 -10 -11 -11 -11 -11 -11 -11 -12
-9 -10 -10 -10 -10 -10 -10 -10 -9 -8 -8 -8 -8 -8 -8 -9 -9 -8 -9 -9 -9 -9 -9 -9 -9 -8 -8 -8 -9 -9 -9 -10 -10 -10 -10 -11 -11 -11 -12 -12 -11 -12 -12
-9 -10 -11 -10 -10 -10 -10 -10 -10 -9 -9 -9 -9 -9 -9 -9 -9 -9 -10 -10 -9 -9 -9 -9 -9 -8 -8 -9 -9 -9 -10 -10 -11 -11 -11 -11 -11 -12 -12 -11 -11 -11 -12
-10 -10 -10 -10 -10 -10 -10 -10 -10 -10 -9 -9 -9 -9 -9 -9 -9 -9 -9 -10 -9 -9 -9 -9 -9 -9 -9 -9 -9 -9 -10 -10 -11 -11 -11 -11 -11 -12 -12 -12 -12 -12 -12
-10 -9 -10 -10 -10 -10 -10 -10 -10 -10 -10 -10 -9 -9 -9 -9 -10 -11 -11 -10 -10 -10 -9 -10 -10 -9 -9 -10 -10 -10 -10 -11 -11 -11 -11 -11 -12 -11 -11 -12 -12 -12 -12
-9 -9 -9 -9 -10 -10 -10 -10 -10 -10 -10 -10 -10 -10 -10 -10 -10 -10 -10 -10 -10 -10 -10 -10 -10 -10 -9 -9 -10 -10 -10 -10 -11 -11 -12 -12 -12 -11 -12 -12 -12 -12 -12
-9 -9 -9 -9 -9 -10 -10 -10 -10 -10 -10 -10 -9 -9 -10 -10 -11 -11 -11 -11 -10 -10 -10 -10 -10 -9 -9 -9 -10 -10 -10 -11 -11 -11 -11 -12 -12 -12 -12 -12 -12 -13 -13
-9 -8 -8 -9 -9 -10 -9 -10 -10 -10 -11 -10 -10 -9 -10 -11 -10 -10 -10 -10 -10 -10 -10 -10 -10 -10 -10 -10 -10 -10 -10 -11 -12 -11 -11 -12 -12 -12 -12 -12 -13 -13 -13
-9 -9 -9 -9 -9 -9 -9 -9 -10 -10 -10 -10 -10 -10 -10 -11 -11 -11 -11 -10 -11 -11 -11 -11 -11 -11 -10 -10 -10 -10 -11 -11 -11 -11 -11 -11 -12 -12 -12 -13 -13 -13 -13
-9 -9 -9 -9 -9 -9 -9 -9 -10 -10 -10 -10 -10 -11 -11 -11 -11 -11 -11 -12 -12 -12 -11 -11 -11 -11 -11 -11 -11 -11 -11 -11 -11 -11 -11 -12 -12 -12 -13 -13 -13 -14 -13
-9 -9 -9 -9 -9 -9 -9 -9 -9 -10 -10 -10 -10 -10 -11 -11 -11 -11 -11 -11 -12 -12 -11 -11 -11 -11 -11 -11 -11 -11 -12 -12 -12 -11 -11 -12 -12 -13 -13 -13 -13 -14 -14
Height
5932 5933 5934 5935 5935 5935 5936 5937 5938 5939 5939 5939 5938 5938 5939 5939 5939 5937 5937 5937 5936 5934 5931 5927 5925 5922 5920 5916 5914 5912 5908 5902 5899 5897 5900 5901 5901 5899 5898 5897 5894 5893 5892
5927 5928 5930 5931 5933 5934 5933 5934 5933 5934 5935 5936 5937 5939 5940 5939 5938 5937 5935 5935 5933 5930 5927 5925 5921 5918 5918 5915 5912 5910 5907 5905 5902 5900 5899 5898 5897 5895 5894 5892 5890 5888 5885
5924 5925 5925 5926 5928 5930 5932 5934 5934 5932 5932 5933 5933 5934 5935 5934 5936 5935 5933 5933 5931 5928 5924 5922 5922 5911 5911 5912 5909 5907 5904 5902 5900 5900 5898 5895 5892 5890 5888 5885 5883 5881 5879
5923 5923 5924 5923 5924 5924 5927 5929 5930 5930 5931 5931 5933 5933 5933 5931 5930 5928 5927 5930 5929 5927 5924 5919 5917 5913 5903 5904 5906 5904 5902 5899 5896 5896 5896 5892 5887 5885 5883 5880 5878 5876 5874
5917 5917 5920 5921 5920 5920 5922 5921 5920 5921 5921 5924 5927 5926 5926 5930 5927 5923 5923 5925 5924 5924 5922 5919 5918 5914 5905 5902 5901 5900 5899 5897 5894 5891 5890 5888 5886 5881 5880 5877 5873 5870 5868
5913 5914 5914 5914 5915 5915 5914 5914 5916 5913 5912 5913 5918 5918 5919 5917 5918 5919 5919 5918 5919 5920 5919 5916 5914 5910 5905 5901 5899 5895 5894 5893 5891 5888 5887 5885 5882 5880 5877 5875 5872 5868 5864
5908 5908 5902 5896 5897 5903 5907 5906 5906 5905 5903 5903 5907 5910 5910 5911 5911 5909 5910 5909 5911 5913 5911 5909 5904 5899 5896 5897 5895 5891 5889 5887 5885 5882 5880 5878 5876 5873 5870 5868 5863 5860 5856
5897 5898 5896 5887 5885 5896 5901 5898 5896 5889 5888 5890 5895 5898 5900 5901 5902 5901 5901 5899 5900 5900 5899 5899 5897 5889 5884 5886 5886 5885 5881 5880 5878 5876 5873 5872 5870 5866 5864 5861 5858 5854 5852
5893 5893 5891 5888 5886 5888 5889 5889 5888 5888 5886 5886 5884 5887 5888 5889 5891 5890 5890 5890 5890 5890 5889 5887 5885 5882 5878 5880 5878 5878 5873 5872 5870 5869 5867 5865 5863 5859 5856 5854 5852 5850 5847
5880 5881 5880 5878 5877 5876 5879 5881 5881 5880 5877 5878 5877 5879 5879 5879 5880 5881 5881 5882 5883 5881 5882 5879 5873 5869 5867 5869 5870 5869 5866 5864 5861 5861 5860 5858 5856 5853 5850 5848 5845 5842 5839
5870 5870 5870 5869 5869 5869 5870 5873 5874 5873 5873 5874 5872 5870 5870 5870 5869 5870 5874 5873 5872 5872 5871 5870 5867 5863 5862 5863 5861 5860 5858 5855 5855 5853 5852 5850 5848 5846 5843 5840 5837 5835 5831
5859 5858 5858 5860 5861 5860 5860 5860 5860 5861 5862 5862 5860 5860 5862 5861 5861 5859 5861 5862 5861 5860 5860 5860 5858 5855 5855 5853 5855 5855 5852 5850 5848 5846 5844 5842 5841 5838 5835 5833 5830 5827 5824
5850 5851 5851 5850 5849 5848 5847 5847 5848 5850 5852 5851 5850 5850 5849 5850 5850 5850 5850 5850 5850 5849 5849 5849 5850 5850 5846 5847 5849 5847 5845 5842 5839 5838 5836 5834 5833 5831 5829 5826 5822 5820 5817
5846 5844 5842 5841 5840 5837 5836 5837 5837 5838 5840 5839 5840 5842 5841 5840 5841 5841 5840 5841 5840 5839 5840 5842 5842 5841 5842 5845 5843 5840 5837 5834 5832 5830 5829 5828 5826 5825 5822 5820 5816 5813 5809
5841 5838 5836 5836 5834 5831 5830 5829 5830 5830 5832 5833 5834 5835 5833 5832 5833 5832 5832 5834 5834 5835 5836 5836 5836 5837 5837 5836 5834 5832 5829 5827 5825 5824 5822 5821 5819 5818 5816 5814 5810 5806 5803
5835 5833 5832 5829 5827 5826 5824 5823 5823 5824 5826 5826 5827 5827 5826 5826 5826 5826 5826 5827 5828 5829 5830 5830 5831 5830 5829 5827 5825 5823 5820 5820 5818 5815 5815 5813 5813 5812 5809 5806 5803 5800 5797
5832 5832 5828 5823 5820 5818 5816 5816 5816 5817 5817 5818 5819 5818 5818 5819 5822 5822 5821 5822 5823 5824 5824 5824 5823 5821 5822 5818 5816 5816 5813 5811 5810 5809 5807 5808 5807 5804 5803 5798 5797 5795 5790
5832 5830 5826 5819 5812 5809 5810 5812 5810 5810 5807 5808 5809 5809 5811 5813 5815 5817 5817 5817 5817 5816 5816 5817 5816 5816 5813 5810 5810 5809 5807 5805 5804 5802 5802 5801 5799 5799 5795 5792 5791 5787 5782
5833 5828 5824 5821 5817 5812 5812 5811 5810 5806 5804 5804 5805 5805 5807 5809 5813 5814 5815 5815 5814 5814 5813 5812 5810 5808 5806 5805 5804 5801 5800 5798 5796 5795 5795 5795 5793 5790 5788 5786 5784 5780 5777
5831 5827 5824 5821 5817 5814 5812 5812 5810 5807 5804 5803 5805 5805 5808 5809 5809 5809 5809 5810 5810 5809 5807 5806 5804 5803 5800 5798 5796 5795 5793 5791 5790 5789 5789 5789 5786 5785 5783 5781 5777 5774 5772
5830 5826 5823 5820 5816 5812 5812 5811 5808 5806 5806 5806 5805 5807 5808 5808 5808 5808 5806 5805 5806 5805 5803 5801 5798 5796 5794 5792 5791 5789 5789 5786 5786 5785 5784 5783 5780 5778 5778 5774 5772 5770 5770
5828 5825 5822 5820 5816 5814 5813 5811 5808 5806 5807 5808 5807 5805 5806 5806 5806 5805 5803 5803 5802 5800 5798 5797 5794 5791 5789 5787 5785 5785 5784 5782 5781 5780 5779 5776 5774 5773 5771 5770 5767 5768 5768
5826 5823 5821 5819 5816 5814 5812 5809 5808 5808 5806 5806 5806 5804 5803 5804 5804 5803 5801 5800 5798 5797 5795 5794 5790 5787 5784 5782 5782 5781 5778 5775 5774 5773 5771 5771 5770 5768 5766 5764 5765 5765 5766
5821 5819 5818 5818 5817 5814 5812 5810 5809 5807 5806 5804 5803 5803 5802 5801 5800 5799 5798 5796 5794 5793 5792 5789 5786 5783 5780 5778 5777 5775 5774 5772 5770 5768 5769 5768 5765 5763 5762 5762 5763 5763 5763
5819 5817 5816 5815 5815 5813 5810 5809 5809 5806 5804 5801 5798 5797 5796 5795 5794 5793 5791 5790 5790 5790 5787 5785 5783 5780 5777 5774 5773 5772 5770 5769 5768 5767 5766 5764 5761 5760 5760 5761 5761 5761 5761
5817 5814 5813 5811 5810 5810 5808 5806 5804 5802 5800 5799 5797 5795 5791 5790 5790 5790 5788 5787 5785 5785 5783 5781 5778 5776 5773 5771 5769 5767 5766 5766 5765 5763 5762 5759 5758 5758 5759 5758 5759 5759 5758
Wind_Speed
8 6 9 11 11 12 13 13 13 14 17 17 17 17 14 13 12 10 9 8 10 10 12 14 11 14 18 20 21 20 19 13 11 18 23 16 9 11 14 16 17 19 19
11 10 11 11 11 12 12 15 16 16 18 20 20 19 18 18 17 15 14 12 14 15 17 19 21 24 18 21 20 17 15 12 10 3 5 6 6 9 13 15 17 18 18
11 13 12 13 12 12 12 12 15 17 18 19 19 20 22 23 23 23 21 16 18 20 23 25 28 19 12 18 19 15 12 11 8 8 7 5 7 10 13 16 17 18 20
12 13 14 14 13 11 11 11 12 13 16 18 17 17 20 25 25 28 29 22 20 23 26 32 31 22 24 16 16 13 12 12 8 9 12 11 10 12 15 18 21 22 22
16 15 16 15 12 12 15 17 19 20 19 20 20 19 20 23 27 31 33 30 27 25 26 30 33 29 24 18 17 15 16 16 17 13 14 15 15 14 15 17 19 22 23
26 23 22 23 17 12 15 17 22 22 23 25 25 28 28 27 30 32 32 33 33 31 29 32 41 37 33 29 19 18 20 21 23 21 22 22 21 22 21 19 19 19 20
32 35 35 35 27 13 17 22 25 26 25 20 20 24 22 23 27 30 31 33 34 34 34 37 48 49 35 29 29 21 22 25 23 25 24 25 24 23 24 23 22 21 21
24 28 39 19 11 17 23 24 28 35 35 26 22 22 21 20 23 23 28 31 28 31 35 38 50 32 27 30 29 24 24 28 26 26 25 27 27 26 25 25 25 25 26
24 23 23 23 22 21 24 27 31 33 33 31 24 25 24 27 25 27 31 33 35 33 37 43 47 48 52 37 28 30 26 28 27 27 27 26 28 28 26 25 26 26 27
28 27 25 25 25 28 29 29 30 30 31 33 29 31 32 33 34 34 36 38 37 37 33 40 44 34 34 25 28 32 31 29 27 28 28 27 29 29 29 28 29 30 30
29 29 28 28 29 30 32 30 30 32 30 35 37 36 33 35 39 40 41 36 36 38 36 36 31 22 19 28 31 33 32 28 27 27 28 28 29 30 31 30 31 32 32
31 32 32 32 34 36 37 36 32 32 33 37 39 38 39 38 41 41 39 39 39 37 37 39 34 25 23 27 35 35 31 27 26 27 27 29 31 32 32 32 34 34 31
29 27 26 28 31 35 37 38 36 33 33 32 33 34 36 35 39 38 37 34 35 31 34 38 25 25 29 34 35 31 31 29 26 24 29 32 32 33 34 34 34 32 31
24 25 27 28 30 33 33 34 34 34 31 30 32 32 31 33 35 32 27 24 22 21 19 21 25 28 29 32 33 33 30 29 24 28 31 32 32 31 30 31 30 28 30
19 21 22 23 24 28 30 30 31 32 31 32 33 31 31 33 34 31 26 22 21 20 19 23 27 29 32 32 32 31 30 28 30 32 33 31 29 30 32 27 27 29 28
15 17 20 22 23 23 26 29 30 29 26 30 31 28 25 27 28 25 23 19 18 21 25 28 30 31 32 31 28 30 30 30 31 34 31 30 30 30 27 30 29 28 33
14 16 17 20 23 23 19 21 18 20 21 24 24 25 24 26 24 20 18 19 20 22 24 27 28 28 30 29 28 29 30 30 30 30 30 30 32 24 25 27 31 29 31
14 17 21 20 22 14 19 17 21 20 19 22 21 18 23 32 31 21 17 16 17 18 20 23 25 28 30 31 31 30 27 28 28 27 26 18 22 27 27 29 33 33 31
17 17 17 18 20 19 15 6 16 16 6 7 8 9 13 14 18 16 14 14 14 16 19 21 23 24 25 27 28 28 28 26 25 23 21 29 29 24 26 27 28 28 26
16 15 17 16 15 14 15 14 13 16 8 10 6 2 7 9 10 11 14 17 20 20 20 20 21 22 22 23 25 25 24 23 23 23 24 26 24 22 20 26 27 24 14
14 15 15 16 16 18 17 15 11 10 12 9 4 2 1 1 3 8 11 11 13 15 16 18 20 22 23 23 23 22 19 20 20 20 20 23 20 18 23 23 23 14 8
13 14 15 17 17 17 16 14 12 9 10 5 5 5 4 1 6 9 11 13 14 15 17 19 20 22 21 19 16 16 17 20 20 20 20 20 22 20 24 23 14 10 7
13 14 14 14 16 16 15 14 11 8 6 4 6 6 3 3 8 11 14 17 17 17 19 20 20 18 15 13 14 16 19 22 23 22 17 18 17 18 19 12 9 8 6
18 17 15 12 12 7 14 12 13 14 6 9 10 9 8 10 12 15 19 20 17 16 19 19 18 18 18 16 16 16 18 14 10 10 13 15 17 17 10 7 7 7 8
17 18 16 15 12 12 13 11 11 7 7 14 17 17 16 15 16 14 14 15 15 16 17 17 19 19 18 17 17 17 15 12 12 14 14 14 13 9 5 5 6 9 12
16 16 17 18 16 13 13 14 14 12 11 14 17 19 22 20 18 16 15 14 15 17 18 18 19 20 18 15 12 12 13 12 13 15 14 11 9 7 4 5 6 10 12
Wind_Direction
247 259 279 279 274 270 248 233 237 242 235 232 234 234 240 250 259 261 263 272 270 262 277 294 309 337 326 339 344 340 336 321 284 245 234 232 248 271 285 284 285 286 285
237 240 244 256 266 271 252 227 232 240 244 243 244 249 256 262 264 263 269 270 279 281 285 289 281 294 303 307 337 331 340 351 6 360 207 221 259 276 288 291 291 290 292
250 243 240 243 247 252 262 257 249 247 243 243 248 249 257 263 272 276 276 278 287 289 287 290 318 315 313 313 332 330 326 330 341 328 303 282 282 288 291 293 292 292 295
265 269 265 260 263 261 257 263 264 269 268 262 264 274 273 272 269 271 276 287 294 296 300 298 309 308 297 304 316 321 301 296 296 303 294 285 280 287 292 296 296 300 298
247 244 258 263 257 263 266 249 239 243 243 254 258 260 263 274 269 267 276 285 289 294 298 305 306 302 311 302 304 315 301 292 296 297 293 301 303 292 287 288 290 286 289
250 252 249 251 240 267 268 270 271 255 250 251 255 258 259 253 257 269 275 278 282 285 288 293 303 291 300 296 298 305 303 301 302 309 311 316 315 311 310 298 290 286 285
273 255 239 233 213 300 273 267 263 255 251 251 259 262 260 259 259 263 269 269 276 283 285 296 308 298 280 277 289 298 299 294 296 298 302 306 308 303 301 300 300 297 296
300 234 287 292 285 262 271 274 264 264 260 246 242 253 255 254 255 260 268 272 273 273 279 297 294 297 265 291 281 290 294 286 284 289 295 300 304 305 301 300 300 300 303
271 272 272 274 271 270 278 275 267 267 269 259 244 249 254 257 254 256 261 269 272 273 285 291 289 283 280 282 277 283 291 284 280 286 290 292 297 299 297 297 297 301 300
277 278 278 277 277 277 272 265 258 263 262 247 247 252 254 264 262 260 262 264 272 279 284 297 297 284 272 268 279 285 287 280 274 279 288 291 292 298 300 298 295 297 303
277 274 272 271 268 266 267 263 259 259 255 253 261 255 258 264 266 265 267 273 279 278 278 285 282 274 281 274 283 284 278 273 278 288 292 291 290 294 296 299 298 303 305
280 277 272 266 263 262 261 260 255 250 253 252 255 260 264 268 271 273 269 270 277 275 275 269 274 273 273 286 281 277 275 278 284 290 289 291 291 295 296 300 300 303 303
285 282 276 271 269 266 261 259 259 258 257 256 261 264 271 272 275 277 274 272 271 269 268 267 267 276 279 276 273 274 279 284 288 282 285 291 293 295 298 301 300 301 304
271 272 275 278 280 277 272 269 264 259 257 261 265 268 271 274 270 272 269 273 267 260 255 257 269 271 270 273 275 278 282 285 281 286 285 290 294 295 300 300 306 301 302
287 271 268 275 273 270 267 269 268 261 260 261 263 263 265 269 269 261 256 252 255 256 257 262 263 266 270 269 273 278 286 287 285 287 286 289 289 291 299 304 300 301 305
318 304 292 287 285 282 273 259 255 254 255 255 258 259 269 265 262 248 244 241 245 251 259 264 266 269 269 276 283 283 288 287 288 288 285 287 285 288 294 297 302 301 301
323 332 331 310 301 291 276 274 273 260 260 254 254 260 274 258 247 234 247 258 262 267 272 275 278 283 284 287 289 283 286 288 287 289 289 287 287 264 290 297 296 299 310
338 336 352 353 346 269 275 276 270 271 247 247 259 267 267 256 250 253 259 268 274 279 279 280 282 282 285 287 286 288 288 287 287 285 283 280 274 288 295 300 298 295 307
346 333 345 360 16 26 21 22 353 351 322 323 255 254 244 230 229 234 247 261 268 274 278 282 284 285 290 292 294 293 289 288 283 281 273 271 281 287 299 294 302 310 315
346 347 353 354 4 16 12 4 360 14 25 54 29 138 234 255 250 246 247 255 264 274 287 292 293 293 295 295 292 291 292 290 284 281 278 278 284 291 291 295 299 316 306
346 342 350 353 356 4 357 5 12 20 16 13 60 128 216 277 204 233 251 266 283 288 291 298 300 299 297 293 294 293 285 282 278 282 278 286 284 278 289 288 308 305 269
341 338 353 353 353 353 351 351 4 20 23 32 23 57 51 274 262 277 291 289 293 302 305 301 298 298 288 282 279 280 290 287 278 288 278 289 287 284 276 292 297 259 276
335 335 347 352 352 341 356 346 348 355 348 307 335 315 337 303 291 295 294 291 291 298 302 298 299 302 289 274 276 280 299 303 287 282 280 285 290 287 284 281 241 249 267
330 332 336 343 348 322 334 343 341 328 294 295 305 307 296 299 304 298 286 280 282 295 298 299 306 310 300 282 282 292 293 301 298 292 282 284 289 286 275 233 249 249 276
321 322 325 326 323 316 314 324 329 311 311 325 324 314 310 303 307 311 290 279 281 291 299 307 305 305 305 293 280 282 277 283 290 296 294 295 278 270 237 250 254 260 282
314 319 325 328 324 316 307 308 312 316 301 301 311 309 305 297 294 301 293 283 283 290 299 308 313 308 309 301 283 293 283 271 291 300 302 279 262 238 247 259 271 283 299